Wallops Island, VA

2:34 AM EDT on August 22, 2017 (GMT -0400)
Wallops Flight Facility

Weather History for KWAL - May, 2013

Change the Weather History Date:

Friday, May 24, 2013

  Actual Average Record
Temperature  
Mean Temperature 63 °F 65 °F  
Max Temperature 73 °F 74 °F 91 °F (1992)
Min Temperature 52 °F 57 °F 44 °F (1963)
Degree Days  
Heating Degree Days 2    
Month to date heating degree days 88  
Since 1 July heating degree days 3748  
Cooling Degree Days 0    
Month to date cooling degree days 73  
Year to date cooling degree days 94  
Growing Degree Days 14 (Base 50)    
Moisture  
Dew Point 53 °F    
Average Humidity 70    
Maximum Humidity 84    
Minimum Humidity 55    
Precipitation  
Precipitation 0.11 in 0.10 in 0.31 in (1999)
Month to date precipitation 1.39 2.20  
Year to date precipitation 18.07 15.07  
Sea Level Pressure  
Sea Level Pressure 29.87 in    
Wind  
Wind Speed 11 mph (NW)    
Max Wind Speed 23 mph    
Max Gust Speed 32 mph    
Visibility 10 miles    
Events Rain    
T = Trace of Precipitation, MM = Missing Value Source: NWS Daily Summary

Daily Weather History Graph

Daily Weather History Graph

Search for Another Location

Airport or City:

Trip Planner

Search our weather history database for the weather conditions in past years. The results will help you decide how hot, cold, wet, or windy it might be!

Date:

Astronomy

May. 24, 2013 Rise Set
Actual Time 5:44 AM EDT 8:12 PM EDT
Civil Twilight 5:14 AM EDT 8:43 PM EDT
Nautical Twilight 4:37 AM EDT 9:20 PM EDT
Astronomical Twilight 3:55 AM EDT 10:02 PM EDT
Moon 7:52 PM EDT (5/24) 5:14 AM EDT (5/24)
Length of Visible Light 15h 28m
Length of Day
14h 28m
Full, 100% of the Moon is Illuminated
May 24
Full
May 25
Full
May 31
Last Quarter
Jun 8
New
Jun 16
First Quarter

Hourly Weather History & Observations

Time (EDT) Temp. Dew Point Humidity Pressure Visibility Wind Dir Wind Speed Gust Speed Precip Events Conditions
12:18 AM 66.0 °F 61.0 °F 84% 29.80 in 9.0 mi West 4.6 mph - 0.00 in   Mostly Cloudy
12:54 AM 66.0 °F 61.0 °F 84% 29.79 in 8.0 mi SW 6.9 mph - 0.00 in   Mostly Cloudy
1:54 AM 68.0 °F 62.1 °F 81% 29.77 in 10.0 mi SW 6.9 mph - N/A   Mostly Cloudy
2:41 AM 69.1 °F 62.1 °F 78% 29.77 in 10.0 mi WSW 5.8 mph - N/A   Overcast
2:54 AM 69.1 °F 62.1 °F 78% 29.75 in 10.0 mi WSW 3.5 mph - N/A   Overcast
3:39 AM 68.0 °F 62.1 °F 81% 29.75 in 10.0 mi WSW 4.6 mph - 0.00 in Rain Light Rain
3:54 AM 69.1 °F 63.0 °F 81% 29.75 in 10.0 mi SW 5.8 mph - 0.00 in Rain Light Rain
4:54 AM 69.1 °F 64.0 °F 84% 29.73 in 10.0 mi Calm Calm - 0.01 in Rain Light Rain
5:54 AM 69.1 °F 63.0 °F 81% 29.75 in 10.0 mi WNW 4.6 mph - 0.00 in   Overcast
6:54 AM 69.1 °F 62.1 °F 78% 29.77 in 10.0 mi WNW 3.5 mph - 0.00 in   Overcast
7:54 AM 70.0 °F 62.1 °F 76% 29.78 in 10.0 mi WNW 6.9 mph - N/A   Clear
8:54 AM 70.0 °F 59.0 °F 68% 29.79 in 10.0 mi NNW 11.5 mph - N/A   Overcast
9:54 AM 69.1 °F 60.1 °F 73% 29.81 in 10.0 mi NNW 11.5 mph - 0.01 in   Mostly Cloudy
10:54 AM 73.0 °F 60.1 °F 64% 29.81 in 10.0 mi North 12.7 mph - N/A   Mostly Cloudy
11:06 AM 68.0 °F 57.0 °F 68% 29.82 in 10.0 mi NW 15.0 mph 29.9 mph N/A   Mostly Cloudy
11:54 AM 64.9 °F 53.1 °F 65% 29.84 in 10.0 mi NW 19.6 mph 27.6 mph N/A   Overcast
12:10 PM 64.9 °F 52.0 °F 63% 29.85 in 10.0 mi NNW 13.8 mph 27.6 mph N/A   Mostly Cloudy
12:20 PM 64.0 °F 52.0 °F 65% 29.85 in 10.0 mi NNW 19.6 mph 27.6 mph N/A   Mostly Cloudy
12:54 PM 61.0 °F 50.0 °F 67% 29.86 in 10.0 mi NNW 16.1 mph 26.5 mph N/A   Overcast
1:54 PM 57.0 °F 48.9 °F 74% 29.88 in 2.5 mi NNW 18.4 mph 25.3 mph 0.04 in Rain Rain
2:02 PM 57.0 °F 50.0 °F 77% 29.89 in 3.0 mi NNW 13.8 mph 25.3 mph 0.03 in Rain Rain
2:54 PM 57.0 °F 48.9 °F 74% 29.89 in 10.0 mi NNW 16.1 mph - 0.05 in Rain Light Rain
3:54 PM 55.9 °F 46.9 °F 72% 29.91 in 10.0 mi NNW 17.3 mph 27.6 mph 0.00 in Rain Light Rain
4:03 PM 55.9 °F 46.9 °F 72% 29.93 in 10.0 mi NNW 12.7 mph 24.2 mph 0.00 in Rain Light Rain
4:50 PM 57.2 °F 46.4 °F 67% 29.93 in 10.0 mi NNW 11.5 mph 21.9 mph 0.00 in   Mostly Cloudy
4:54 PM 57.0 °F 46.0 °F 67% 29.93 in 10.0 mi North 19.6 mph 25.3 mph 0.00 in   Overcast
5:03 PM 55.9 °F 45.0 °F 67% 29.94 in 10.0 mi North 13.8 mph 25.3 mph N/A   Overcast
5:34 PM 57.0 °F 43.0 °F 59% 29.96 in 10.0 mi NNW 12.7 mph 27.6 mph N/A   Overcast
5:54 PM 57.9 °F 44.1 °F 60% 29.96 in 10.0 mi NNW 11.5 mph - N/A   Overcast
6:54 PM 55.9 °F 42.1 °F 60% 29.98 in 10.0 mi NNW 10.4 mph 23.0 mph N/A   Overcast
7:54 PM 55.9 °F 42.1 °F 60% 30.00 in 10.0 mi NNW 9.2 mph - N/A   Overcast
8:54 PM 55.9 °F 39.9 °F 55% 30.02 in 10.0 mi NNW 12.7 mph 27.6 mph N/A   Overcast
9:54 PM 55.0 °F 39.9 °F 57% 30.04 in 10.0 mi NNW 13.8 mph 23.0 mph N/A   Overcast
10:54 PM 55.0 °F 39.9 °F 57% 30.07 in 10.0 mi NNW 8.1 mph - N/A   Overcast
11:54 PM 52.0 °F 39.9 °F 63% 30.07 in 10.0 mi NNW 15.0 mph 23.0 mph 0.00 in Rain Light Rain